STARLINK-1162 (45058 NORAD) Tracking and Keplerian Element Data

This shows tracking and keplerian element data for the satellite.

Feedback or suggestion? Click here.




ElementValue
Catalog45058
NameSTARLINK-1162
Epoch Orbit402
Epoch Day52.91667824
Epoch Year2020
RAAN120.7993
Inclination52.996
Eccentricity0.0001643
Argument of Perigee68.0139
Mean Anonmoly215.1952
Mean Motion15.51729603
Decay Rate0.0059571
L11 45058U 20006Q 20052.91667824 .00595710 00000-0 91100-2 0 9992
L22 45058 52.9960 120.7993 0001643 68.0139 215.1952 15.51729603 4027

Live tracking and technical data element details for STARLINK-1162 (NORAD 45058). STARLINK-1162 can be tracked NOW for your location showing map with azimuth and elevation plus other details from your city location.

Track the satellite on the map from your city or location and see movement details for azimuth, elevation, latitude, longitude, range, height, and movement on the map or in text.







IsCatalogInMostPopularTable: catalog: 45058, numindb: 7
Update: records affected: 1



GetName: 45058 STARLINK-1162

Hit Count: updated at: Wed, 26 Feb 2020 16:16:43 GMT